This is the latest recevied weather packets stored in our database for station/object KF4WSW-13. If no packets are shown the sender has not sent any weather packets the latest 10 day(s).
| Time | Temp. | Humidity | Pressure | Rain* | Wind** | Luminosity | Snow |
|---|---|---|---|---|---|---|---|
| 1778106064 | 27.22° C | 82% | 1013.7 hPa | 0 mm | - | 55 W/m² | - |
| 1778105762 | 27.22° C | 80% | 1013.6 hPa | 0 mm | - | 113 W/m² | - |
| 1778105460 | 27.22° C | 81% | 1013.7 hPa | 0 mm | - | 154 W/m² | - |
| 1778105156 | 27.22° C | 82% | 1013.8 hPa | 0 mm | - | 63 W/m² | - |
| 1778104851 | 27.22° C | 82% | 1013.8 hPa | 0 mm | - | 67 W/m² | - |
| 1778104548 | 27.22° C | 81% | 1014 hPa | 0 mm | - | 62 W/m² | - |
| 1778104244 | 27.22° C | 81% | 1013.9 hPa | 0 mm | - | 116 W/m² | - |
| 1778103941 | 27.22° C | 81% | 1013.9 hPa | 0 mm | - | 177 W/m² | - |
| 1778103638 | 27.22° C | 81% | 1013.9 hPa | 0 mm | - | 141 W/m² | - |
| 1778103336 | 27.22° C | 81% | 1013.9 hPa | 0 mm | - | 98 W/m² | - |
| 1778103033 | 27.22° C | 81% | 1014 hPa | 0 mm | - | 80 W/m² | - |
| 1778102730 | 27.78° C | 80% | 1014 hPa | 0 mm | - | 92 W/m² | - |
| 1778102425 | 27.78° C | 80% | 1014 hPa | 0 mm | - | 130 W/m² | - |
| 1778102121 | 27.78° C | 80% | 1014.1 hPa | 0 mm | - | 181 W/m² | - |
| 1778101818 | 27.78° C | 80% | 1013.9 hPa | 0 mm | - | 146 W/m² | - |
| 1778101515 | 27.78° C | 79% | 1014 hPa | 0 mm | - | 223 W/m² | - |
| 1778101212 | 28.33° C | 78% | 1013.9 hPa | 0 mm | - | 194 W/m² | - |
| 1778100908 | 28.89° C | 77% | 1013.7 hPa | 0 mm | - | 235 W/m² | - |
| 1778100604 | 28.33° C | 79% | 1013.8 hPa | 0 mm | - | 186 W/m² | - |
| 1778100302 | 27.78° C | 79% | 1013.8 hPa | 0 mm | - | 407 W/m² | - |
| 1778099999 | 27.78° C | 79% | 1013.9 hPa | 0 mm | - | 448 W/m² | - |
| 1778099696 | 28.33° C | 78% | 1013.9 hPa | 0 mm | - | 473 W/m² | - |
| 1778099393 | 28.33° C | 78% | 1013.8 hPa | 0 mm | - | 504 W/m² | - |
| 1778099090 | 28.33° C | 78% | 1013.8 hPa | 0 mm | - | 431 W/m² | - |
| 1778098786 | 28.33° C | 78% | 1013.9 hPa | 0 mm | - | 506 W/m² | - |
* Rain latest hour (hover to see other rain measurements)
** Current wind speed in m/s (hover to see current wind gust speed)